Location: Columbia
(38.9520°N, 92.3340°W)
Time: 12:35:00
(UTC-05:00)

SJ-11-01 - Visible Passes

Search period start: 19 April 2014 00:00
Search period end: 29 April 2014 00:00
Orbit: 686 x 700 km, 98.0° (Epoch: 19 April)

Date Brightness Start Highest point End Pass type
(mag) Time Alt. Az. Time Alt. Az. Time Alt. Az.
19 Apr 5.3 20:40:13 12° SE 20:43:48 29° ENE 20:47:52 10° N visible
19 Apr 6.1 22:18:54 18° SW 22:21:18 27° W 22:25:18 10° NW visible
20 Apr 4.2 21:20:28 22° SSE 21:23:28 75° ENE 21:28:13 10° N visible
21 Apr 5.8 20:22:45 10° ESE 20:26:08 20° ENE 20:29:32 10° NNE visible
21 Apr 5.4 22:00:43 21° SSW 22:03:23 41° W 22:07:52 10° NNW visible
22 Apr 4.6 21:02:17 17° SE 21:05:43 49° ENE 21:10:17 10° N visible
22 Apr 6.8 22:40:58 11° SW 22:43:32 16° W 22:46:25 10° NW visible
23 Apr 4.6 21:42:32 22° S 21:45:31 64° W 21:50:14 10° NNW visible
24 Apr 5.2 20:44:06 11° SE 20:47:59 32° ENE 20:52:12 10° N visible
24 Apr 6.2 22:22:47 15° SW 22:25:33 24° W 22:29:24 10° NW visible
25 Apr 4.2 21:24:20 20° SSE 21:27:41 84° ENE 21:32:27 10° N visible
26 Apr 5.7 20:26:43 10° ESE 20:30:18 22° ENE 20:33:55 10° NNE visible
26 Apr 5.6 22:04:35 18° SSW 22:07:37 37° W 22:12:01 10° NNW visible
27 Apr 4.5 21:06:09 15° SSE 21:09:54 54° ENE 21:14:32 10° N visible
27 Apr 6.9 22:45:15 10° SW 22:47:47 14° W 22:50:19 10° WNW visible
28 Apr 4.8 21:46:23 19° S 21:49:43 57° W 21:54:24 10° NNW visible
